THY1GJ LTFM-CYYZ

Flight info

Callsign THY1GJ
Flight time N/A
Altitude 34000
Route TUDBU1D/35L TUDBU Q26 ETUBA T226 NAVOD DCT MOPUG DCT BEGLA DCT DITIS DCT SOPGA DCT VARIK L602 PEROX Z715 UNAVI Z93 KODUK/N0424F240 Z93 ETOLU/N0437F260 Z719 BIBTA/N0424F240 N850 GISEM Z505 ARPEG/N0476F340 Z850 HMM L602 MIMVA DCT OTBED Y70 GOLES/N0421F240 L975 DESIG L70 PENIL/N0472F340 M144 BAGSO DCT DOGAL/M083F360 NATA ALLRY/N0467F360 DCT QUBIS/N0483F380 DCT LETAK IMEBA9
Aircraft B77W/H-SDE1E2E3FGHIJ2J3J4J5M1RWXY/LB1D1

Departure

Time 2026-05-01 12:22
Airport İstanbul Airport (LTFM)

Arrival

Time N/A
Airport Toronto Pearson International Airport (CYYZ)
Time Latitude Longitude Altitude Speed Heading
2026-05-01 12:03 41.26790 28.73442 339 ft 0 kts 179°
2026-05-01 12:13 41.26795 28.73442 339 ft 3 kts 179°
2026-05-01 12:13 41.26822 28.73441 333 ft 4 kts 179°
2026-05-01 12:13 41.26845 28.73441 333 ft 4 kts 190°
2026-05-01 12:13 41.26864 28.73449 333 ft 4 kts 227°
2026-05-01 12:14 41.26872 28.73469 333 ft 4 kts 267°
2026-05-01 12:14 41.26871 28.73505 334 ft 4 kts 271°
2026-05-01 12:14 41.26871 28.73514 333 ft 0 kts 269°
2026-05-01 12:17 41.26870 28.73436 333 ft 15 kts 269°
2026-05-01 12:17 41.26868 28.73297 335 ft 15 kts 269°
2026-05-01 12:17 41.26867 28.73158 336 ft 15 kts 269°
2026-05-01 12:17 41.26860 28.73035 338 ft 8 kts 249°
2026-05-01 12:18 41.26816 28.72993 334 ft 8 kts 191°
2026-05-01 12:18 41.26758 28.72992 335 ft 9 kts 180°
2026-05-01 12:18 41.26655 28.72994 339 ft 12 kts 179°
2026-05-01 12:18 41.26570 28.72996 337 ft 12 kts 179°
2026-05-01 12:19 41.26485 28.72998 334 ft 12 kts 179°
2026-05-01 12:19 41.26400 28.73000 334 ft 12 kts 179°
2026-05-01 12:19 41.26315 28.73002 334 ft 12 kts 179°
2026-05-01 12:19 41.26242 28.72999 338 ft 10 kts 199°
2026-05-01 12:20 41.26230 28.72984 335 ft 1 kts 232°
2026-05-01 12:20 41.26225 28.72972 333 ft 5 kts 244°
2026-05-01 12:20 41.26213 28.72857 339 ft 15 kts 267°
2026-05-01 12:20 41.26211 28.72717 339 ft 15 kts 269°
2026-05-01 12:21 41.26211 28.72577 339 ft 15 kts 274°
2026-05-01 12:21 41.26276 28.72523 334 ft 12 kts 356°
2026-05-01 12:21 41.26301 28.72522 335 ft 0 kts 359°
2026-05-01 12:21 41.26475 28.72519 339 ft 68 kts 359°
2026-05-01 12:22 41.27274 28.72507 347 ft 160 kts
2026-05-01 12:22 41.28513 28.72569 987 ft 192 kts
2026-05-01 12:22 41.29889 28.72554 2299 ft 209 kts
2026-05-01 12:22 41.31384 28.72518 3233 ft 219 kts
2026-05-01 12:23 41.32944 28.72508 4070 ft 229 kts
2026-05-01 12:23 41.34568 28.72518 4791 ft 238 kts
2026-05-01 12:23 41.36221 28.72533 5010 ft 241 kts
2026-05-01 12:23 41.38240 28.72437 4983 ft 235 kts 350°
2026-05-01 12:24 41.39783 28.71544 5101 ft 248 kts 338°
2026-05-01 12:24 41.41291 28.70564 5630 ft 243 kts 339°
2026-05-01 12:24 41.42813 28.69598 6449 ft 242 kts 338°
2026-05-01 12:24 41.44331 28.68630 7199 ft 241 kts 338°